Location: Baili�vre
(50.0696°N, 4.2409°E)
Time: 06:54:25
(UTC+00:00)

Cosmos 2082 Rocket - Pass Details

Date: 08 August 2020
Orbit: 835 x 852 km, 71.0° (Epoch: 26 September)

Event Time Altitude Azimuth Distance (km) Brightness Sun altitude
Rises 20:03:05 0° 173° (S) 3,401 4.9 -7.6°
Reaches altitude 10° 20:05:48 10° 163° (SSE) 2,468 4.2 -8.0°
Maximum altitude 20:10:36 29° 105° (ESE) 1,496 3.0 -8.6°
Drops below altitude 10° 20:15:26 10° 46° (NE) 2,474 4.6 -9.2°
Sets 20:18:09 0° 36° (NE) 3,411 5.4 -9.5°
